Location: Arcadia
(34.1397°N, 118.0353°W)
Time: 23:49:41
(UTC+00:00)

Cosmos 1763 Rocket - Pass Details

Date: 08 September 2024
Orbit: 730 x 776 km, 74.0° (Epoch: 13 October)

Event Time Altitude Azimuth Distance (km) Brightness Sun altitude
Rises 12:19:05 0° 342° (NNW) 3,184 6.7 -15.3°
Reaches altitude 10° 12:21:26 10° 342° (NNW) 2,264 5.9 -14.9°
Maximum altitude 12:26:34 86° 253° (WSW) 758 3.4 -13.9°
Drops below altitude 10° 12:31:45 10° 166° (SSE) 2,282 5.9 -12.8°
Sets 12:34:07 0° 166° (SSE) 3,211 6.7 -12.4°
